DAL1306 KATL-KCLT

Flight info

Callsign DAL1306
Flight time 0h 40m
Altitude 29000
Route PHIIL3 PHIIL CNTLR JONZE5
Aircraft A319/M-SDE3FGHIRWY/LB1

Departure

Time 2026-05-04 22:07
Airport Hartsfield Jackson Atlanta International Airport (KATL)

Arrival

Time 2026-05-04 22:48
Airport Charlotte Douglas International Airport (KCLT)
Time Latitude Longitude Altitude Speed Heading
2026-05-04 21:36 33.63875 -84.43638 1036 ft 0 kts 88°
2026-05-04 21:57 33.63875 -84.43649 1035 ft 4 kts 95°
2026-05-04 21:57 33.63877 -84.43681 1035 ft 4 kts 100°
2026-05-04 21:57 33.63885 -84.43710 1035 ft 4 kts 133°
2026-05-04 21:57 33.63904 -84.43723 1035 ft 0 kts 179°
2026-05-04 22:00 33.63881 -84.43722 1035 ft 7 kts 180°
2026-05-04 22:00 33.63812 -84.43722 1035 ft 11 kts 180°
2026-05-04 22:00 33.63743 -84.43722 1035 ft 4 kts 180°
2026-05-04 22:01 33.63714 -84.43722 1035 ft 5 kts 176°
2026-05-04 22:01 33.63673 -84.43698 1039 ft 9 kts 131°
2026-05-04 22:01 33.63665 -84.43599 1035 ft 15 kts 89°
2026-05-04 22:01 33.63665 -84.43454 1035 ft 18 kts 90°
2026-05-04 22:02 33.63664 -84.43294 1035 ft 21 kts 90°
2026-05-04 22:02 33.63664 -84.43119 1035 ft 21 kts 90°
2026-05-04 22:02 33.63665 -84.42949 1035 ft 22 kts 90°
2026-05-04 22:02 33.63662 -84.42763 1035 ft 22 kts 95°
2026-05-04 22:03 33.63656 -84.42581 1036 ft 22 kts 90°
2026-05-04 22:03 33.63656 -84.42399 1036 ft 22 kts 90°
2026-05-04 22:03 33.63655 -84.42223 1036 ft 18 kts 95°
2026-05-04 22:03 33.63600 -84.42089 1036 ft 18 kts 120°
2026-05-04 22:04 33.63582 -84.41943 1035 ft 18 kts 90°
2026-05-04 22:04 33.63582 -84.41782 1035 ft 21 kts 90°
2026-05-04 22:04 33.63582 -84.41603 1035 ft 21 kts 90°
2026-05-04 22:04 33.63583 -84.41427 1034 ft 21 kts 90°
2026-05-04 22:05 33.63582 -84.41252 1035 ft 21 kts 90°
2026-05-04 22:05 33.63581 -84.41098 1035 ft 11 kts 90°
2026-05-04 22:05 33.63581 -84.41004 1035 ft 13 kts 89°
2026-05-04 22:05 33.63539 -84.40912 1036 ft 13 kts 162°
2026-05-04 22:06 33.63473 -84.40963 1036 ft 13 kts 256°
2026-05-04 22:06 33.63472 -84.41095 1035 ft 30 kts 270°
2026-05-04 22:06 33.63471 -84.41650 1034 ft 100 kts 270°
2026-05-04 22:06 33.63471 -84.42717 1036 ft 153 kts 270°
2026-05-04 22:07 33.63474 -84.44065 1471 ft 164 kts 270°
2026-05-04 22:07 33.63463 -84.45397 2117 ft 165 kts 266°
2026-05-04 22:07 33.63441 -84.46779 2754 ft 167 kts 266°
2026-05-04 22:07 33.63143 -84.48190 3095 ft 185 kts 241°
2026-05-04 22:08 33.62513 -84.49647 3340 ft 210 kts 241°
2026-05-04 22:08 33.61812 -84.51292 3703 ft 234 kts 241°
2026-05-04 22:08 33.61039 -84.53119 4219 ft 254 kts 242°
2026-05-04 22:08 33.60226 -84.55045 5061 ft 262 kts 240°
2026-05-04 22:09 33.59119 -84.56780 5955 ft 265 kts 221°
2026-05-04 22:09 33.57570 -84.57973 6854 ft 268 kts 202°
2026-05-04 22:09 33.55751 -84.58461 7728 ft 272 kts 182°
2026-05-04 22:09 33.53843 -84.58461 8631 ft 275 kts 180°
2026-05-04 22:10 33.51921 -84.58453 9519 ft 278 kts 181°
2026-05-04 22:10 33.49969 -84.58446 10340 ft 282 kts 180°
2026-05-04 22:10 33.48001 -84.57977 10901 ft 300 kts 156°
2026-05-04 22:10 33.46346 -84.56346 11160 ft 328 kts 127°
2026-05-04 22:11 33.45443 -84.53739 11376 ft 355 kts 103°
2026-05-04 22:11 33.45159 -84.50668 11660 ft 375 kts 92°
2026-05-04 22:11 33.45185 -84.47555 12247 ft 382 kts 88°
2026-05-04 22:11 33.45337 -84.44351 12920 ft 387 kts 87°
2026-05-04 22:12 33.45493 -84.41113 13597 ft 392 kts 88°
2026-05-04 22:12 33.45602 -84.37836 14217 ft 396 kts 89°
2026-05-04 22:12 33.45728 -84.34519 14825 ft 401 kts 84°
2026-05-04 22:12 33.46238 -84.31218 15398 ft 407 kts 75°
2026-05-04 22:13 33.47044 -84.27930 15967 ft 411 kts 73°
2026-05-04 22:13 33.47874 -84.24600 16543 ft 416 kts 73°
2026-05-04 22:13 33.48710 -84.21269 17109 ft 420 kts 73°
2026-05-04 22:13 33.49562 -84.17900 17670 ft 425 kts 73°
2026-05-04 22:14 33.50426 -84.14492 18230 ft 429 kts 73°
2026-05-04 22:14 33.51310 -84.11010 18736 ft 434 kts 73°
2026-05-04 22:14 33.52190 -84.07534 19192 ft 438 kts 73°
2026-05-04 22:14 33.53075 -84.04033 19666 ft 441 kts 73°
2026-05-04 22:15 33.53969 -84.00493 20143 ft 445 kts 73°
2026-05-04 22:15 33.54879 -83.96885 20599 ft 449 kts 72°
2026-05-04 22:15 33.55783 -83.93287 21043 ft 452 kts 72°
2026-05-04 22:15 33.56688 -83.89660 21476 ft 456 kts 72°
2026-05-04 22:16 33.57597 -83.86005 21915 ft 459 kts 72°
2026-05-04 22:16 33.58350 -83.83086 22246 ft 462 kts 69°
2026-05-04 22:16 33.59619 -83.79538 22658 ft 464 kts 64°
2026-05-04 22:16 33.60990 -83.75953 23078 ft 467 kts 64°
2026-05-04 22:17 33.62321 -83.72465 23481 ft 471 kts 64°
2026-05-04 22:17 33.63683 -83.68883 23832 ft 474 kts 64°
2026-05-04 22:17 33.64958 -83.65518 24163 ft 476 kts 64°
2026-05-04 22:17 33.66080 -83.61702 24507 ft 480 kts 74°
2026-05-04 22:18 33.67023 -83.57853 24840 ft 482 kts 66°
2026-05-04 22:18 33.68569 -83.54267 25175 ft 481 kts 56°
2026-05-04 22:18 33.70322 -83.50875 25514 ft 483 kts 56°
2026-05-04 22:18 33.72077 -83.47421 25851 ft 485 kts 56°
2026-05-04 22:19 33.73809 -83.43935 26163 ft 487 kts 57°
2026-05-04 22:19 33.75524 -83.40411 26478 ft 490 kts 57°
2026-05-04 22:19 33.77251 -83.36815 26790 ft 492 kts 57°
2026-05-04 22:19 33.78962 -83.33242 27112 ft 494 kts 57°
2026-05-04 22:20 33.80706 -83.29611 27418 ft 496 kts 57°
2026-05-04 22:20 33.82415 -83.26064 27710 ft 498 kts 57°
2026-05-04 22:20 33.84195 -83.22419 28002 ft 499 kts 56°
2026-05-04 22:20 33.86039 -83.18876 28285 ft 501 kts 54°
2026-05-04 22:21 33.87959 -83.15375 28561 ft 502 kts 53°
2026-05-04 22:21 33.89924 -83.11885 28807 ft 504 kts 52°
2026-05-04 22:21 33.91900 -83.08382 29001 ft 506 kts 53°
2026-05-04 22:22 33.95806 -83.01323 29040 ft 507 kts 53°
2026-05-04 22:22 33.99647 -82.94214 29044 ft 507 kts 54°
2026-05-04 22:23 34.03479 -82.87075 29038 ft 509 kts 54°
2026-05-04 22:23 34.07332 -82.79906 29044 ft 509 kts 54°
2026-05-04 22:24 34.11195 -82.72739 29038 ft 509 kts 54°
2026-05-04 22:24 34.15054 -82.65565 29027 ft 509 kts 54°
2026-05-04 22:25 34.18905 -82.58394 29025 ft 509 kts 54°
2026-05-04 22:25 34.22748 -82.51210 29021 ft 509 kts 54°
2026-05-04 22:26 34.26586 -82.44020 29043 ft 509 kts 54°
2026-05-04 22:26 34.30418 -82.36831 29043 ft 508 kts 54°
2026-05-04 22:27 34.34234 -82.29660 28989 ft 509 kts 54°
2026-05-04 22:27 34.36145 -82.26067 28570 ft 505 kts 54°
2026-05-04 22:27 34.38041 -82.22496 28295 ft 503 kts 54°
2026-05-04 22:27 34.39927 -82.18934 28030 ft 501 kts 54°
2026-05-04 22:28 34.41749 -82.15487 27776 ft 499 kts 54°
2026-05-04 22:28 34.43620 -82.11946 27535 ft 499 kts 55°
2026-05-04 22:28 34.45488 -82.08409 27287 ft 491 kts 54°
2026-05-04 22:28 34.47309 -82.04948 27031 ft 476 kts 54°
2026-05-04 22:29 34.49060 -82.01617 26799 ft 462 kts 54°
2026-05-04 22:29 34.50762 -81.98377 26545 ft 449 kts 54°
2026-05-04 22:29 34.52418 -81.95224 26333 ft 437 kts 54°
2026-05-04 22:29 34.54035 -81.92147 25852 ft 429 kts 54°
2026-05-04 22:30 34.55628 -81.89119 25103 ft 424 kts 54°
2026-05-04 22:30 34.57206 -81.86126 24460 ft 417 kts 54°
2026-05-04 22:30 34.58754 -81.83178 23929 ft 412 kts 54°
2026-05-04 22:30 34.60283 -81.80260 23349 ft 408 kts 54°
2026-05-04 22:31 34.61797 -81.77373 22796 ft 404 kts 54°
2026-05-04 22:31 34.63307 -81.74495 22275 ft 404 kts 54°
2026-05-04 22:31 34.64829 -81.71591 21829 ft 400 kts 54°
2026-05-04 22:31 34.66300 -81.68783 21276 ft 399 kts 54°
2026-05-04 22:32 34.67771 -81.65968 20739 ft 392 kts 54°
2026-05-04 22:32 34.69216 -81.63192 20192 ft 387 kts 54°
2026-05-04 22:32 34.70646 -81.60442 19710 ft 382 kts 54°
2026-05-04 22:32 34.72077 -81.57680 19186 ft 381 kts 54°
2026-05-04 22:33 34.73482 -81.54970 18904 ft 375 kts 54°
2026-05-04 22:33 34.74863 -81.52336 18778 ft 362 kts 51°
2026-05-04 22:33 34.75908 -81.50747 18686 ft 352 kts 43°
2026-05-04 22:33 34.77580 -81.48622 18387 ft 345 kts 42°
2026-05-04 22:34 34.79228 -81.46523 17755 ft 341 kts 43°
2026-05-04 22:34 34.80850 -81.44445 17326 ft 337 kts 43°
2026-05-04 22:34 34.82459 -81.42380 16924 ft 335 kts 43°
2026-05-04 22:34 34.84061 -81.40325 16533 ft 335 kts 43°
2026-05-04 22:35 34.85666 -81.38266 16124 ft 335 kts 43°
2026-05-04 22:35 34.87280 -81.36196 15722 ft 335 kts 43°
2026-05-04 22:35 34.88893 -81.34124 15376 ft 333 kts 43°
2026-05-04 22:35 34.90485 -81.32076 14967 ft 334 kts 44°
2026-05-04 22:36 34.92073 -81.30032 14616 ft 332 kts 44°
2026-05-04 22:36 34.93647 -81.28006 14164 ft 326 kts 43°
2026-05-04 22:36 34.95328 -81.25843 13685 ft 323 kts 43°
2026-05-04 22:36 34.96793 -81.23959 13298 ft 321 kts 43°
2026-05-04 22:37 34.98316 -81.22003 12908 ft 319 kts 44°
2026-05-04 22:37 34.99859 -81.20016 12528 ft 317 kts 44°
2026-05-04 22:37 35.01276 -81.18189 12177 ft 317 kts 44°
2026-05-04 22:37 35.02852 -81.16155 11781 ft 317 kts 44°
2026-05-04 22:38 35.04368 -81.14197 11404 ft 316 kts 44°
2026-05-04 22:38 35.05874 -81.12251 11044 ft 315 kts 44°
2026-05-04 22:38 35.07370 -81.10314 10679 ft 314 kts 44°
2026-05-04 22:38 35.08855 -81.08407 10393 ft 309 kts 41°
2026-05-04 22:39 35.10571 -81.06927 10282 ft 294 kts 22°
2026-05-04 22:39 35.12467 -81.06215 10152 ft 279 kts
2026-05-04 22:39 35.14387 -81.06206 10043 ft 285 kts 351°
2026-05-04 22:39 35.16385 -81.06402 10000 ft 290 kts 352°
2026-05-04 22:40 35.18404 -81.06587 10008 ft 292 kts 352°
2026-05-04 22:40 35.20430 -81.06765 9906 ft 291 kts 352°
2026-05-04 22:40 35.22441 -81.06939 9501 ft 290 kts 352°
2026-05-04 22:40 35.24445 -81.07111 9122 ft 288 kts 352°
2026-05-04 22:41 35.25798 -81.07227 8871 ft 287 kts 352°
2026-05-04 22:41 35.28406 -81.07439 8369 ft 285 kts 353°
2026-05-04 22:41 35.29760 -81.07548 8087 ft 284 kts 353°
2026-05-04 22:41 35.32414 -81.07791 7578 ft 282 kts 352°
2026-05-04 22:42 35.34363 -81.07984 7185 ft 281 kts 352°
2026-05-04 22:42 35.36307 -81.08094 6847 ft 280 kts
2026-05-04 22:42 35.38104 -81.07318 6715 ft 273 kts 32°
2026-05-04 22:42 35.39353 -81.05660 6505 ft 262 kts 62°
2026-05-04 22:43 35.39891 -81.03574 6114 ft 260 kts 80°
2026-05-04 22:43 35.40197 -81.01381 5996 ft 258 kts 82°
2026-05-04 22:43 35.40344 -80.99209 5704 ft 254 kts 99°
2026-05-04 22:43 35.39642 -80.97326 5210 ft 240 kts 141°
2026-05-04 22:44 35.38229 -80.96483 4740 ft 223 kts 178°
2026-05-04 22:44 35.36707 -80.96477 4355 ft 214 kts 182°
2026-05-04 22:44 35.35240 -80.96385 3848 ft 207 kts 178°
2026-05-04 22:44 35.33815 -80.96251 3336 ft 199 kts 178°
2026-05-04 22:45 35.32462 -80.96133 2907 ft 191 kts 178°
2026-05-04 22:45 35.30016 -80.95896 2341 ft 161 kts 180°
2026-05-04 22:45 35.28912 -80.95825 2053 ft 153 kts 178°
2026-05-04 22:46 35.27883 -80.95736 1906 ft 141 kts 180°
2026-05-04 22:46 35.26946 -80.95657 1684 ft 133 kts 180°
2026-05-04 22:46 35.26007 -80.95596 1405 ft 134 kts 179°
2026-05-04 22:46 35.25090 -80.95511 1160 ft 133 kts 180°
2026-05-04 22:47 35.24174 -80.95436 1036 ft 132 kts 181°
2026-05-04 22:47 35.23248 -80.95357 877 ft 135 kts 185°
2026-05-04 22:47 35.22320 -80.95280 750 ft 131 kts 181°
2026-05-04 22:47 35.21568 -80.95220 738 ft 72 kts 176°
2026-05-04 22:48 35.21222 -80.95188 736 ft 27 kts 176°
2026-05-04 22:48 35.21153 -80.95080 734 ft 19 kts 87°
2026-05-04 22:48 35.21212 -80.94986 733 ft 15 kts 357°
2026-05-04 22:48 35.21317 -80.94994 733 ft 15 kts 355°
2026-05-04 22:49 35.21423 -80.95003 733 ft 16 kts 356°
2026-05-04 22:49 35.21535 -80.95011 733 ft 16 kts 355°
2026-05-04 22:49 35.21647 -80.95020 734 ft 16 kts 355°
2026-05-04 22:49 35.21760 -80.95029 734 ft 16 kts 357°
2026-05-04 22:50 35.21874 -80.95039 734 ft 16 kts 354°
2026-05-04 22:50 35.21988 -80.95051 734 ft 17 kts 355°
2026-05-04 22:50 35.22092 -80.95055 734 ft 13 kts 16°
2026-05-04 22:50 35.22131 -80.94966 733 ft 11 kts 57°
2026-05-04 22:51 35.22183 -80.94902 731 ft 9 kts 44°
2026-05-04 22:51 35.22213 -80.94852 733 ft 6 kts 57°
2026-05-04 22:51 35.22222 -80.94836 731 ft 0 kts 54°